Location: Unspecified
(41.1850°N, 73.2650°W)
Time: 04:11:31
(UTC+00:00)

Daily predictions for brighter satellites

Satellite Brightness Start Highest point End
(mag) Time Altitude Azimuth Time Altitude Azimuth Time Altitude Azimuth
Resurs 01 Rocket 2.2 00:00:33 10° S 00:04:52 62° W 00:09:14 10° NNW
BREEZE-M DEB (TANK) 4.5 00:03:31 10° WNW 00:05:21 17° NNW 00:07:01 10° NNE
CZ-4 R/B 2.5 00:03:15 10° ESE 00:06:16 23° ENE 00:09:17 10° NNE
PSLV R/B 3.9 00:02:30 10° S 00:06:31 65° WSW 00:10:36 10° NNW
BREEZE-M DEB (TANK) 3.3 00:05:04 10° SW 00:07:58 72° SE 00:16:38 10° ENE
Cosmos 2360 Rocket 4.5 00:05:31 10° WSW 00:10:22 29° NW 00:15:16 10° N
Helios 1A Rocket 3.4 00:07:53 10° NE 00:10:32 24° E 00:13:11 10° SSE
Cosmos 2154 Rocket 4.3 00:08:40 10° SSW 00:14:58 75° W 00:21:20 10° N
SL-19 R/B 4.4 00:10:05 10° S 00:15:18 74° WSW 00:20:46 10° NNW
Iridium 82 4.4 00:13:11 10° N 00:16:07 66° W 00:18:58 10° S
Lacrosse 5 rocket 3.6 00:16:08 10° WNW 00:18:15 16° NNW 00:20:22 10° N
BREEZE-M DEB (TANK) 2.8 00:16:46 10° WNW 00:19:09 83° SSW 00:26:00 12° ESE
OAO 3 Rocket 4.4 00:16:53 10° SSW 00:20:31 23° SSE 00:23:34 13° ESE
CZ-4B R/B 4.1 00:17:34 10° SE 00:20:59 41° ENE 00:24:32 10° N
NOSS 0 Rocket 4.1 00:15:21 10° S 00:21:17 48° ESE 00:27:15 10° NE
ODIN 4.5 00:18:30 10° SSE 00:21:28 77° ENE 00:24:27 10° N
Cosmos 1703 Rocket 3.5 00:20:16 10° N 00:24:35 87° E 00:28:52 10° S
Cosmos 2084 Rocket 4.1 00:21:19 10° S 00:24:46 28° ESE 00:28:17 10° ENE
NOSS 2-3 (D) 4.4 00:19:33 10° NNW 00:24:52 72° NE 00:32:02 10° SE
Cosmos 1933 Rocket 3.5 00:26:11 10° S 00:30:33 84° E 00:34:58 10° N
RESURS DK-1 3.7 00:34:30 17° ESE 00:34:31 17° ESE 00:37:05 10° ENE
Cosmos 2237 Rocket 2.7 00:29:48 10° S 00:34:59 38° ESE 00:40:11 10° NE
Cosmos 1680 Rocket 3.5 00:30:26 10° NNW 00:35:40 89° WSW 00:40:50 10° SSE
Cosmos 1980 4.0 00:31:03 10° S 00:36:19 42° ESE 00:41:36 10° NE
Meteor 1-31 Rocket 2.4 00:35:36 10° SSE 00:39:03 68° ENE 00:42:34 10° N
Cosmos 1733 Rocket 4.0 00:36:38 15° SE 00:39:21 27° E 00:43:02 10° NNE
SPOT 5 2.9 00:41:40 10° S 00:46:23 75° W 00:50:52 10° NNW
Cosmos 2322 4.3 00:41:21 10° SW 00:46:59 63° WNW 00:52:41 10° NNE
ADEOS 4.0 00:46:24 18° SE 00:49:55 44° ENE 00:54:50 10° N
USA 234 3.5 00:43:40 10° NE 00:50:13 77° NW 00:56:45 10° WSW
ERS-1 Rocket 3.1 00:46:30 16° SE 00:50:17 53° ENE 00:55:09 10° N
Cosmos 2112 Rocket 4.2 00:50:34 10° NNW 00:55:45 72° WSW 01:00:40 11° S
Cosmos 2341 Rocket 3.9 00:50:21 10° S 00:56:34 78° E 01:02:52 10° N
CSL-04 Rocket 4.0 00:51:42 10° S 00:57:12 69° WSW 01:02:46 10° NNW
DNEPR-1 R/B 3.6 00:55:19 10° SW 00:59:32 77° WNW 01:03:50 10° NNE
USA 238 DEB 4.3 00:52:58 10° NNW 01:00:14 53° NE 01:05:16 23° ESE
Spot 2 Rocket 4.4 00:58:21 24° ESE 01:00:15 31° ENE 01:04:39 10° N
Geosat 3.9 00:55:19 10° NNE 01:00:19 67° ESE 01:05:16 10° SSW
USA 238 4.3 00:53:08 10° NNW 01:00:24 52° NE 01:05:25 23° ESE
Cosmos 1869 Rocket 4.0 00:56:24 10° SSW 01:00:43 64° W 01:05:07 10° N
Meteor 2-15 4.4 00:55:55 10° S 01:01:54 66° E 01:07:56 10° NNE
Cosmos 1809 Rocket 4.5 00:56:24 10° N 01:02:31 65° E 01:07:13 18° SSE
SL-24 R/B 4.2 00:57:44 10° NNE 01:02:43 69° E 01:07:03 10° S
SL-8 Rocket 4.0 00:58:34 10° S 01:04:49 88° W 01:11:09 10° N
Cosmos 2369 Rocket 4.3 01:05:44 10° NNE 01:07:26 11° NE 01:09:08 10° ENE
USA 59 Rocket 1.5 01:06:37 10° N 01:09:14 19° NE 01:09:54 18° ENE
BREEZE-M DEB (TANK) 3.9 01:02:33 10° WNW 01:10:18 60° NNE 01:11:36 34° E
Okean-O 3.2 01:14:36 34° E 01:15:22 37° ENE 01:19:24 10° N
CZ-4B R/B 3.2 01:11:59 22° SSE 01:15:42 80° ENE 01:21:21 10° NNW
CZ-4B DEB 4.4 01:10:56 13° S 01:15:48 72° WSW 01:21:18 10° NNW
Cosmos 2366 rocket 4.1 01:12:19 10° SSW 01:18:28 76° W 01:24:38 10° N
Cosmos 2278 Rocket 2.1 01:15:37 10° NNW 01:21:19 86° ENE 01:24:07 31° SSE
COSMOS 2428 4.2 01:16:15 10° SW 01:21:34 39° WNW 01:26:55 10° N
Cosmos 1943 Rocket 2.3 01:16:13 10° NNW 01:21:53 76° WSW 01:25:07 26° SSE
Cosmos 1400 Rocket 2.4 01:22:39 61° E 01:22:39 61° E 01:26:11 10° NNE
Cosmos 1727 Rocket 4.3 01:16:49 10° N 01:22:59 50° ENE 01:25:21 34° SE
USA 32 4.0 01:23:24 12° S 01:28:17 83° W 01:33:32 10° N
BREEZE-M DEB (TANK) 3.9 01:27:30 10° W 01:29:14 21° WSW 01:29:14 21° WSW
Terra 1.9 01:28:46 28° S 01:31:12 70° WSW 01:35:53 10° NNW
Okean O Rocket 1.6 01:30:58 53° ESE 01:31:31 58° ENE 01:35:48 10° N
CZ-4B R/B 4.5 01:33:33 19° NE 01:33:33 19° NE 01:35:08 10° NNE
BREEZE-M DEB (TANK) 3.6 01:30:07 11° SSW 01:33:37 50° ESE 01:44:56 10° NE
Meteor 2-21 4.4 01:31:44 10° N 01:37:55 88° E 01:41:00 32° S
NOSS 3-4 (A) 3.9 01:33:39 10° SW 01:38:46 53° NW 01:44:20 10° NNE
NOSS 3-4 (C) 3.9 01:34:07 10° SW 01:39:16 53° NW 01:44:53 10° NNE
Cosmos 1346 Rocket 4.1 01:36:48 10° N 01:38:50 26° NE 01:38:50 26° NE
CZ-4 R/B 3.4 01:37:12 10° SSW 01:40:12 23° W 01:43:13 10° NW
Cosmos 1048 Rocket 4.3 01:35:16 10° NNW 01:40:20 62° WSW 01:42:30 33° S
NOSS 2-1 (D) 4.4 01:38:27 10° NNW 01:41:14 31° NE 01:41:14 31° NE
Cosmos 2242 Rocket 3.7 01:39:07 10° NNW 01:43:34 71° W 01:44:42 48° SSW
Cosmos 1674 Rocket 3.6 01:41:53 10° N 01:45:51 58° ENE 01:45:51 58° ENE
SL-16 R/B 3.0 01:48:13 34° ENE 01:48:13 34° ENE 01:52:01 10° NE
MOS 1-B 4.2 01:47:45 46° SSE 01:49:36 86° ENE 01:55:25 10° NNW
Aureole 3 4.2 01:47:27 10° NNW 01:52:15 71° W 01:54:16 40° SSW
Cosmos 2123 Rocket 4.2 01:49:44 10° N 01:55:48 49° ENE 01:56:25 47° E
Cosmos 1821 Rocket 4.5 01:50:11 10° SSW 01:56:18 59° W 02:02:33 10° N
SL-08 R/B 4.3 01:52:53 10° N 01:57:35 47° WNW 02:02:14 10° SW
Cosmos 2239 Rocket 4.4 01:55:38 36° S 01:58:19 89° ESE 02:04:34 10° N
Cosmos 1125 Rocket 4.1 01:56:07 10° SW 02:01:12 55° WNW 02:06:23 10° N
Cosmos 1378 Rocket 3.9 01:58:03 10° NNW 02:02:21 57° W 02:02:43 55° WSW
RESURS DK-1 3.7 02:09:22 20° WSW 02:11:33 36° WNW 02:15:14 10° N
Cosmos 2285 Rocket 3.9 02:17:56 70° ESE 02:18:00 70° ESE 02:24:19 10° NNE
Cosmos 2237 Rocket 3.9 02:13:59 10° WSW 02:19:02 32° WNW 02:24:07 10° N
Cosmos 1000 Rocket 4.5 02:13:28 10° N 02:19:37 77° W 02:20:42 61° SSW
Cosmos 2221 Rocket 4.5 02:23:30 10° N 02:26:39 46° NNW 02:26:39 46° NNW
SeaSat 1 4.4 02:29:57 19° NE 02:29:57 19° NE 02:32:52 10° N
Ariane Rocket 3.3 02:31:47 61° N 02:31:47 61° N 02:35:56 10° NNW
IRS-1C Rocket 4.2 02:33:00 70° N 02:33:00 70° N 02:37:41 10° NNW
Cosmos 1025 Rocket 4.3 02:30:51 10° NNW 02:33:59 37° WNW 02:33:59 37° WNW
SL-08 R/B 4.4 02:28:51 10° N 02:35:04 83° W 02:35:19 80° SW
Cosmos 2297 4.5 02:31:18 10° NNW 02:36:05 42° NE 02:36:05 42° NE
SPOT 3 Rocket 4.0 02:43:18 56° WNW 02:43:18 56° WNW 02:47:52 10° NNW
CZ-4B R/B 4.3 02:48:26 45° WNW 02:48:26 45° WNW 02:52:06 10° NNW
Cosmos 1656 Rocket 4.1 02:44:00 10° NNW 02:48:36 55° WNW 02:48:36 55° WNW
Cosmos 2369 Rocket 2.8 02:47:00 10° NNW 02:51:21 51° N 02:51:21 51° N
USA 59 Rocket 2.3 02:54:15 10° NW 02:55:26 19° WNW 02:55:26 19° WNW
BREEZE-M DEB (TANK) 3.6 02:55:55 10° WNW 02:58:51 63° NW 02:58:51 63° NW
Okean O Rocket 4.3 03:08:12 12° W 03:08:12 12° W 03:09:51 10° WNW
SJ 16-02 4.2 03:22:19 10° NNE 03:22:30 11° NNE 03:22:30 11° NNE
SL-16 R/B 3.7 03:29:57 29° WNW 03:30:56 30° NW 03:35:55 10° N
NOSS 3-1 (C) 4.1 03:33:03 10° NW 03:39:45 78° NNW 03:39:45 78° NNW
COSMOS 2455 4.1 04:08:27 10° NNW 04:11:59 36° NNW 04:11:59 36° NNW
NOSS 3-1 (A) 4.4 04:28:14 10° NW 04:33:59 61° NW 04:33:59 61° NW
CZ-2C R/B 4.4 04:50:56 29° N 04:50:56 29° N 04:53:39 10° N
Cosmos 1980 Rocket 4.4 05:03:57 10° N 05:07:48 18° NE 05:08:13 18° NE
ATLAS 3B R/B 4.4 05:12:25 10° NNW 05:19:12 31° NE 05:24:20 15° E
Cosmos 2082 Rocket 4.4 05:36:20 17° ENE 05:36:20 17° ENE 05:38:20 10° NE
ATLAS 2AS CENTAUR R/B 3.3 05:37:32 51° NNE 05:37:32 51° NNE 05:42:28 10° NNE
ACS3 Solar Sail 2.9 05:36:52 10° NNE 05:40:46 37° NE 05:40:46 37° NE
Cosmos 1833 Rocket 4.2 05:48:33 32° N 05:48:33 32° N 05:51:38 10° NNE
CZ-4C R/B 4.4 05:59:09 13° ENE 05:59:09 13° ENE 05:59:51 10° ENE
IDEFIX/ARIANE 42P 4.1 06:06:47 10° NNE 06:09:46 31° NE 06:09:46 31° NE
Cosmos 2034 Rocket 4.5 06:23:09 57° N 06:23:09 57° N 06:28:07 10° N
COSMOS 2406 4.5 06:36:48 33° E 06:36:48 33° E 06:41:19 10° NE
ADEOS Rocket 3.9 06:29:35 10° NNE 06:36:57 54° E 06:38:09 50° SE
Cosmos 2026 Rocket 4.3 06:32:26 10° N 06:37:33 62° N 06:37:33 62° N
Resurs 1-4 Rocket 3.9 06:36:52 10° NE 06:41:03 23° E 06:41:23 23° E
Cosmos 909 Rocket 4.1 06:41:55 72° NE 06:41:55 72° NE 06:47:30 10° NNE
Cosmos 1092 Rocket 4.2 06:39:08 10° N 06:44:21 66° N 06:44:21 66° N
Envisat 4.4 06:47:54 10° NE 06:52:20 31° E 06:52:20 31° E
Cosmos 1980 Rocket 3.3 06:46:43 10° NNW 06:49:54 35° NNW 06:49:54 35° NNW
Cosmos 2369 4.2 06:46:50 10° NNW 06:52:27 57° ENE 06:52:38 57° ENE
USA 281 3.2 06:53:50 68° NW 06:53:50 68° NW 06:59:37 10° NNW
Cosmos 2333 Rocket 4.2 06:57:12 10° N 07:01:53 26° NE 07:06:34 10° ESE
USA 267 3.2 06:56:53 10° NE 07:03:24 69° NW 07:04:02 65° WNW
Cosmos 44 Rocket 3.9 07:08:40 56° ENE 07:08:40 56° ENE 07:12:50 10° NE
Cosmos 2221 4.1 07:09:57 30° ENE 07:09:57 30° ENE 07:12:59 10° NNE
ATLAS 3B R/B 2.7 07:02:59 10° NW 07:10:42 75° WSW 07:11:25 70° SSW
Cosmos 1634 Rocket 4.1 07:13:31 60° WNW 07:13:31 60° WNW 07:19:10 10° N
MSX 4.3 07:11:13 10° N 07:16:08 47° NW 07:16:08 47° NW
MOZ.5/SAFIR/RUBIN 5/SL-8 4.3 07:18:25 56° N 07:18:25 56° N 07:22:12 10° N
Cosmos 2082 Rocket 2.6 07:18:09 52° NW 07:18:09 52° NW 07:23:19 10° NNE
USA 229 DEB 4.3 07:16:50 10° NW 07:23:11 47° W 07:23:11 47° W
USA 229 4.3 07:16:53 10° NW 07:23:25 49° W 07:23:25 49° W
ACS3 Solar Sail 3.0 07:19:54 10° NNW 07:24:19 26° WNW 07:24:19 26° WNW
ATLAS 2AS CENTAUR R/B 4.3 07:24:55 19° WNW 07:27:27 22° NW 07:32:40 10° NNE
Cosmos 724 4.3 07:29:56 64° W 07:30:20 66° WNW 07:36:19 10° NNE
BREEZE-M DEB (TANK) 4.0 07:29:52 25° N 07:30:51 29° NNE 07:36:35 10° E
Cosmos 1975 4.1 07:27:36 10° N 07:30:34 34° ENE 07:30:34 34° ENE
Cosmos 2322 Rocket 4.1 07:26:34 10° N 07:31:22 28° NE 07:36:10 10° ESE
H-2A R/B 2.9 07:27:33 10° NNE 07:32:25 44° E 07:33:58 35° SE
DMSP B5D2-2 4.0 07:33:43 63° SE 07:34:32 80° ENE 07:39:45 10° N
FENGYUN 3A 4.3 07:31:10 10° N 07:35:55 42° WNW 07:35:55 42° WNW
Iridium 4 Rocket 4.0 07:35:36 41° ESE 07:36:28 47° E 07:40:59 10° NNE
CZ-2D R/B 2.2 07:32:39 10° NNE 07:37:53 68° ESE 07:38:53 55° SSE
USA 234 3.4 07:31:45 10° ESE 07:38:14 71° NE 07:44:45 10° NW
Meteor 2-6 Rocket 4.1 07:42:40 65° WSW 07:43:09 69° W 07:48:57 10° N
SL-16 R/B 2.7 07:37:48 10° NNW 07:43:26 60° ENE 07:49:00 10° SE
CZ-4C R/B 2.7 07:44:02 33° NW 07:44:02 33° NW 07:48:39 10° NNE
Cosmos 2237 4.1 07:41:40 10° NNW 07:47:20 63° WSW 07:47:33 62° WSW
Cosmos 1271 Rocket 3.4 07:49:27 45° NNE 07:49:27 45° NNE 07:51:59 10° NNE
Cosmos 2279 Rocket 4.3 07:48:16 46° W 07:48:44 47° WNW 07:54:43 10° N
SL-4 R/B 4.4 07:46:40 12° NNW 07:48:58 19° N 07:51:44 10° NE
IDEFIX/ARIANE 42P 4.0 07:46:55 10° NNW 07:50:27 22° WNW 07:50:27 22° WNW
Cosmos 1777 Rocket 4.3 07:47:24 10° NNW 07:52:40 67° ENE 07:57:51 10° SSE
NOAA 11 4.4 07:47:47 10° N 07:52:59 48° WNW 07:53:21 47° W
Cosmos 1238 Rocket 4.3 07:55:29 20° E 07:55:40 21° E 07:57:52 10° NE
Cosmos 2180 Rocket 4.5 07:55:01 50° WSW 07:56:11 59° W 08:02:16 10° N
ALOS 2.0 07:52:25 10° N 07:56:59 81° WNW 07:57:24 72° SW
ADEOS II 2.1 07:54:02 10° NNE 07:59:17 78° ESE 08:01:12 40° S
Cosmos 1607 4.3 08:00:55 40° W 08:02:31 50° NW 08:08:35 10° NNE
Cosmos 540 Rocket 3.7 08:01:46 38° S 08:03:41 67° ESE 08:08:47 10° NNE
JB-3 4.4 08:06:20 38° SE 08:07:30 64° ENE 08:11:05 10° N
H-2A R/B 3.0 08:09:47 36° NW 08:09:47 36° NW 08:12:11 10° NNW
Cosmos 1470 4.2 08:09:46 10° NNW 08:11:10 22° NNW 08:11:10 22° NNW
Cosmos 1655 Rocket 4.3 08:07:38 10° N 08:13:51 65° E 08:20:00 10° SSE
ARGOS 3.8 08:11:54 10° NNE 08:17:10 52° E 08:22:07 11° S
COSMOS 2406 4.0 08:18:50 31° W 08:20:25 36° WNW 08:25:42 10° N
Resurs 1-4 Rocket 2.5 08:15:57 10° N 08:20:58 44° WNW 08:22:26 36° WSW
ADEOS Rocket 4.3 08:15:31 10° N 08:22:01 34° WNW 08:25:05 26° WSW
Spot 2 4.4 08:20:43 38° SSW 08:22:10 54° W 08:26:55 10° NNW
Cosmos 2266 Rocket 4.1 08:17:11 10° NNW 08:23:06 52° W 08:26:23 26° SSW
SL-16 R/B 3.1 08:21:55 10° SSE 08:28:02 60° ENE 08:34:12 10° N
NOSS 3-3 (A) 4.3 08:28:45 29° W 08:30:51 42° NW 08:36:34 10° NNE
Envisat 3.9 08:26:50 10° N 08:31:15 31° WNW 08:32:27 27° W
METEOR-M 4.1 08:29:38 10° N 08:34:57 71° WNW 08:38:24 22° SSW
Cosmos 1812 Rocket 4.4 08:39:28 28° W 08:40:05 29° WNW 08:43:51 10° NNW
NOSS 3-3 (C) 4.4 08:41:51 24° W 08:44:31 41° NW 08:50:17 10° NNE
Meteor 1-11 Rocket 3.9 08:39:15 10° NNW 08:44:59 53° W 08:50:35 10° S
H-2A R/B 1.9 08:42:11 10° NNE 08:46:15 79° ESE 08:49:43 13° S
Cosmos 2221 4.0 08:46:15 18° WNW 08:46:22 18° WNW 08:49:18 10° NNW
Cosmos 2333 Rocket 2.4 08:40:57 10° NW 08:46:24 49° WSW 08:51:50 10° S
AQUA 3.7 08:43:58 10° N 08:48:39 78° WNW 08:52:42 14° SSW
ISS -1.2 08:49:07 10° S 08:51:16 16° SE 08:53:26 10° E
CZ-2C R/B 3.3 08:48:43 10° NNE 08:53:29 49° E 08:58:05 10° S
CRYOSAT 2 4.4 08:49:02 10° S 08:53:49 57° W 08:58:38 10° NNW
SL-8 R/B 4.3 08:52:43 19° W 08:55:19 33° SW 08:59:31 10° SSE
Cosmos 1354 Rocket 4.0 08:52:20 10° NNW 08:57:33 61° WSW 09:02:41 10° S
Cosmos 990 Rocket 4.0 08:54:07 10° NNW 08:59:10 58° WSW 09:04:11 10° S
ATLAS 3B R/B 4.4 08:56:46 10° WNW 08:58:31 13° W 08:58:31 13° W
Cosmos 1842 Rocket 3.4 08:56:48 10° S 09:01:06 85° W 09:05:24 10° N
Cosmos 1503 Rocket 4.5 08:57:16 10° NW 09:02:03 36° W 09:06:46 10° SSW
Cosmos 1763 Rocket 4.4 08:59:23 19° WSW 09:02:20 33° WNW 09:07:06 10° N
Cosmos 2360 Rocket 2.2 08:58:06 10° NNW 09:03:41 61° WSW 09:09:15 10° S
Cosmos 841 Rocket 3.9 08:59:21 10° S 09:04:23 63° ESE 09:09:29 10° NNE
Cosmos 1833 4.4 09:01:22 16° SW 09:05:57 57° WNW 09:11:34 10° NNE
USA 290 3.0 09:04:50 23° WSW 09:06:11 33° WNW 09:09:06 10° N
SL-08 RB Rocket 3.6 09:03:15 10° N 09:07:41 82° WNW 09:12:06 10° SSW
Cosmos 2278 4.3 09:04:24 10° NW 09:09:29 34° WSW 09:14:33 10° SSW
NOSS 3-4 (A) 4.3 09:04:09 10° NNW 09:11:03 69° NE 09:19:08 10° SE
H-2A R/B 3.3 09:07:29 10° NNW 09:11:26 23° WNW 09:14:28 14° WSW
NOSS 3-4 (C) 4.3 09:04:41 10° NNW 09:11:35 68° NE 09:19:40 10° SE
SL-14 R/B 3.6 09:10:30 10° S 09:14:19 66° E 09:18:11 10° NNE
Cosmos 2322 Rocket 2.5 09:10:13 10° NW 09:15:32 44° WSW 09:20:50 10° S
Alouette 2 Rocket 3.8 09:12:50 10° NNW 09:16:41 37° W 09:19:59 10° SSW
CZ-2D R/B 3.8 09:14:07 10° NNW 09:17:17 16° WNW 09:20:09 11° W
BREEZE-M DEB (TANK) 3.1 09:13:09 10° WNW 09:20:54 62° NNE 09:23:44 10° ESE
USA 234 3.9 09:15:47 10° S 09:21:31 33° SW 09:27:19 10° WNW
CZ-3 R/B 3.5 09:03:14 12° WSW 09:22:50 44° SSW 09:29:56 10° ESE
In-Cosmos 22 4.3 09:18:05 10° S 09:23:20 77° E 09:28:40 10° NNE
Cosmos 1151 Rocket 3.5 09:20:50 10° S 09:24:58 61° E 09:29:08 10° NNE
Cosmos 1553 Rocket 4.0 09:18:58 10° SSW 09:25:01 62° W 09:31:12 10° N
SL-16 R/B 3.5 09:23:07 10° WNW 09:26:56 19° W 09:30:45 10° SW
SL-4 R/B 3.0 09:23:26 10° NW 09:27:07 44° NNE 09:30:40 10° ESE
Cosmos 1805 Rocket 4.4 09:25:09 10° N 09:29:29 57° E 09:33:47 10° SSE
Cosmos 1238 Rocket 4.2 09:30:53 10° W 09:31:37 11° WNW 09:32:20 10° WNW
Gbstr 26 Del rocket 3.5 09:28:40 10° NW 09:32:18 52° NNE 09:36:11 10° ESE
Cosmos 1939 Rocket 2.9 09:29:04 10° NNE 09:32:41 73° ESE 09:36:19 10° S
Cosmos 2219 Rocket 2.3 09:30:44 10° NNW 09:36:13 54° WSW 09:41:40 10° S
Cosmos 1461 2.6 09:33:58 10° SSW 09:37:42 87° WNW 09:41:28 10° NNE
ADEOS II 3.9 09:35:26 10° NNW 09:38:09 14° WNW 09:40:51 10° W
BREEZE-M DEB (TANK) 2.7 09:34:18 10° WSW 09:40:18 48° NNW 09:42:58 10° NE
Cosmos 2322 4.4 09:35:52 10° NNW 09:41:33 62° ENE 09:47:10 10° SE
BREEZE-M DEB (TANK) 4.4 09:48:29 10° W 10:04:16 47° NNW 10:08:11 10° NE
